Location: River House Observatory
(37.8577°N, 76.3548°W)
Time: 10:16:29
(UTC-04:00)

NOSS 3-1 (C) - Visible Passes

Search period start: 31 October 2014 00:00
Search period end: 09 November 2014 23:00
Orbit: 891 x 1318 km, 63.4° (Epoch: 29 October)

Date Brightness Start Highest point End Pass type
(mag) Time Alt. Az. Time Alt. Az. Time Alt. Az.
31 Oct 6.3 03:11:47 12° NNE 03:12:23 12° NNE 03:14:49 10° NE visible
31 Oct 5.1 04:59:14 12° NNW 05:05:33 39° NE 05:12:56 10° ESE visible
31 Oct 4.3 06:49:23 10° NW 06:56:44 52° WSW 07:04:31 10° S visible
31 Oct 4.8 20:39:58 10° SSW 20:42:19 25° S 20:42:19 25° S visible
01 Nov 5.6 04:16:05 18° N 04:19:55 27° NE 04:26:25 10° E visible
01 Nov 4.0 06:03:58 10° NW 06:11:35 79° WSW 06:19:42 10° SSE visible
01 Nov 4.1 19:55:30 10° S 19:59:42 33° SE 19:59:42 33° SE visible
01 Nov 5.8 21:46:02 10° WSW 21:47:12 16° WSW 21:47:12 16° WSW visible
02 Nov 5.9 02:33:04 19° NNE 02:34:05 19° NE 02:39:23 10° ENE visible
02 Nov 4.2 04:20:32 19° NNW 04:26:19 71° NE 04:34:24 10° SE visible
02 Nov 4.6 18:11:47 10° SSE 18:16:03 21° ESE 18:17:03 20° E visible
02 Nov 4.3 20:00:16 10° SW 20:04:32 45° WSW 20:04:32 45° WSW visible
03 Nov 6.4 01:50:10 12° NE 01:50:10 12° NE 01:51:45 10° ENE visible
03 Nov 4.7 03:37:38 31° N 03:40:54 48° NE 03:48:37 10° ESE visible
03 Nov 4.5 05:25:07 11° NW 05:31:49 40° WSW 05:39:14 10° S visible
03 Nov 5.2 17:30:20 10° ESE 17:31:21 10° ESE 17:32:22 10° E visible
03 Nov 3.3 19:14:59 10° SSW 19:20:58 84° ESE 19:21:47 69° NE visible
03 Nov 6.0 21:08:13 10° W 21:09:16 14° WNW 21:09:16 14° WNW visible
04 Nov 5.2 02:54:52 33° NE 02:55:21 33° NE 03:02:23 10° ESE visible
04 Nov 4.0 04:42:21 28° NW 04:46:44 63° WSW 04:54:44 10° SSE visible
04 Nov 3.6 18:30:12 10° S 18:35:54 49° ESE 18:38:57 28° ENE visible
04 Nov 5.1 20:21:42 10° WSW 20:26:25 29° NW 20:26:25 29° NW visible
05 Nov 6.0 02:12:13 20° ENE 02:12:13 20° ENE 02:15:38 10° E visible
05 Nov 3.9 03:59:43 58° NNW 04:01:32 87° ENE 04:09:41 10° SSE visible
05 Nov 5.3 05:47:12 11° WNW 05:51:46 19° WSW 05:57:00 10° SSW visible
05 Nov 4.3 17:46:01 10° SSE 17:51:00 28° ESE 17:56:00 11° NE visible
05 Nov 4.3 19:35:42 10° WSW 19:41:29 46° NW 19:43:28 36° N visible
06 Nov 4.5 03:17:09 56° E 03:17:09 56° E 03:24:10 10° SE visible
06 Nov 4.7 05:04:39 27° W 05:06:53 31° WSW 05:13:45 10° S visible
06 Nov 3.6 18:50:09 10° SW 18:56:08 75° NW 19:00:23 23° NNE visible
06 Nov 5.8 20:44:21 10° WNW 20:47:50 17° NW 20:47:50 17° NW visible
07 Nov 5.7 02:34:39 25° E 02:34:39 25° E 02:38:11 10° ESE visible
07 Nov 4.2 04:22:09 49° WSW 04:22:09 49° WSW 04:29:35 10° S visible
07 Nov 3.4 18:05:04 10° SSW 18:10:59 67° ESE 18:17:12 11° NE visible
07 Nov 5.3 19:57:32 10° W 20:02:27 24° NW 20:04:38 20° NNW visible
08 Nov 4.7 03:39:40 43° SSE 03:39:40 43° SSE 03:44:50 10° SSE visible
08 Nov 5.5 05:27:10 14° WSW 05:27:10 14° WSW 05:30:21 10° SW visible
08 Nov 4.0 17:20:32 10° S 17:25:59 38° ESE 17:31:50 10° NE visible
08 Nov 4.8 19:11:15 10° WSW 19:16:49 36° NW 19:21:20 17° NNE visible
09 Nov 5.8 02:57:11 22° SE 02:57:11 22° SE 02:59:35 10° SE visible
09 Nov 5.4 04:44:41 20° SW 04:44:41 20° SW 04:48:00 10° SSW visible
09 Nov 4.0 18:25:27 10° SW 18:31:22 57° NW 18:37:50 10° NNE visible
09 Nov 5.9 20:20:42 10° WNW 20:23:53 14° NNW 20:25:22 13° NNW visible
